This is the latest recevied weather packets stored in our database for station/object KK4KTV-13. If no packets are shown the sender has not sent any weather packets the latest 10 day(s).
| Time | Temp. | Humidity | Pressure | Rain* | Wind** | Luminosity | Snow |
|---|---|---|---|---|---|---|---|
| 1777436042 | 17.22° C | 87% | 1011.2 hPa | 0 mm | - | 0 W/m² | - |
| 1777435739 | 17.22° C | 87% | 1011.6 hPa | 0 mm | - | 0 W/m² | - |
| 1777435435 | 17.22° C | 87% | 1011.8 hPa | 0 mm | - | 0 W/m² | - |
| 1777435130 | 17.22° C | 87% | 1012.1 hPa | 0 mm | - | 0 W/m² | - |
| 1777434826 | 17.78° C | 87% | 1012.5 hPa | 0 mm | - | 0 W/m² | - |
| 1777434525 | 17.78° C | 86% | 1012.8 hPa | 0 mm | - | 0 W/m² | - |
| 1777434223 | 17.78° C | 86% | 1012.9 hPa | 0 mm | - | 0 W/m² | - |
| 1777433919 | 17.78° C | 86% | 1012.8 hPa | 0 mm | - | 0 W/m² | - |
| 1777433616 | 17.78° C | 86% | 1013.2 hPa | 0 mm | - | 0 W/m² | - |
| 1777433312 | 18.33° C | 87% | 1013.3 hPa | 0 mm | - | 0 W/m² | - |
| 1777433008 | 18.33° C | 88% | 1013.6 hPa | 0 mm | - | 0 W/m² | - |
| 1777432703 | 18.89° C | 87% | 1013.5 hPa | 0 mm | - | 0 W/m² | - |
| 1777432400 | 18.89° C | 86% | 1013.5 hPa | 0 mm | - | 0 W/m² | - |
| 1777432095 | 18.89° C | 85% | 1013.3 hPa | 0 mm | - | 0 W/m² | - |
| 1777431790 | 19.44° C | 84% | 1013.6 hPa | 0 mm | - | 0 W/m² | - |
| 1777431486 | 19.44° C | 82% | 1013.6 hPa | 0 mm | - | 0 W/m² | - |
| 1777431182 | 20° C | 82% | 1013.8 hPa | 0 mm | - | 0 W/m² | - |
| 1777430878 | 20.56° C | 82% | 1013.9 hPa | 0 mm | - | 0 W/m² | - |
| 1777430575 | 20.56° C | 82% | 1013.7 hPa | 0 mm | - | 0 W/m² | - |
| 1777430270 | 21.11° C | 82% | 1013.5 hPa | 0 mm | - | 0 W/m² | - |
| 1777429970 | 21.11° C | 84% | 1013.5 hPa | 0 mm | - | 0 W/m² | - |
| 1777429668 | 21.11° C | 87% | 1013.4 hPa | 0 mm | - | 0 W/m² | - |
| 1777429363 | 21.11° C | 87% | 1013.4 hPa | 0 mm | - | 0 W/m² | - |
| 1777429059 | 21.11° C | 90% | 1013.3 hPa | 0 mm | - | 0 W/m² | - |
| 1777428756 | 21.11° C | 90% | 1013.3 hPa | 0 mm | - | 0 W/m² | - |
* Rain latest hour (hover to see other rain measurements)
** Current wind speed in m/s (hover to see current wind gust speed)